Orbital Elements at Epoch 2459200.5 (2020-Dec-17.0) TDB
Reference: JPL 21 (heliocentric ecliptic J2000)
Element | Value | Uncertainty (1-sigma) | Units |
e | .2273242298677514 | 3.9694e-08 | |
a | 2.779650968622216 | 1.7939e-08 | au |
q | 2.147768952879021 | 1.1139e-07 | au |
i | 21.09880814430694 | 5.6249e-06 | deg |
node | 147.114287810399 | 1.3538e-05 | deg |
peri | 128.48012900 | 1.8507e-05 | deg |
M | 169.6062593117802 | 1.357e-05 | deg |
tp | 2458403.013754064592 (2018-Oct-11.51375406) | 6.0871e-05 | TDB |
period | 1692.714936946943 4.63 | 1.6387e-05 4.487e-08 | d yr |
n | .2126760933824524 | 2.0589e-09 | deg/d |
Q | 3.41153298436541 | 2.2017e-08 | au |
|
| | Orbit Determination Parameters
Additional Information
|